TimeAKST,TemperatureF,Dew PointF,Humidity,Sea Level PressureIn,VisibilityMPH,Wind Direction,Wind SpeedMPH,Gust SpeedMPH,PrecipitationIn,Events,Conditions,WindDirDegrees,DateUTC
12:16 AM,8.6,5.0,85,29.70,10.0,Calm,Calm,-,N/A,,Mostly Cloudy,0,2012-12-18 09:16:00
12:36 AM,8.6,3.2,79,29.70,10.0,North,3.5,-,N/A,,Mostly Cloudy,360,2012-12-18 09:36:00
12:56 AM,10.4,3.2,73,29.70,10.0,North,3.5,-,N/A,,Overcast,350,2012-12-18 09:56:00
1:16 AM,10.4,3.2,73,29.70,10.0,North,4.6,-,N/A,,Overcast,350,2012-12-18 10:16:00
1:36 AM,12.2,6.8,79,29.70,10.0,Calm,Calm,-,N/A,,Overcast,0,2012-12-18 10:36:00
1:56 AM,10.4,3.2,73,29.70,10.0,North,3.5,-,N/A,,Overcast,360,2012-12-18 10:56:00
2:16 AM,10.4,3.2,73,29.70,10.0,Calm,Calm,-,N/A,,Overcast,0,2012-12-18 11:16:00
2:36 AM,10.4,3.2,73,29.70,10.0,Calm,Calm,-,N/A,,Overcast,0,2012-12-18 11:36:00
3:16 AM,8.6,1.4,73,29.70,10.0,NNW,4.6,-,N/A,,Partly Cloudy,340,2012-12-18 12:16:00
3:36 AM,8.6,3.2,79,29.70,10.0,North,3.5,-,N/A,,Partly Cloudy,350,2012-12-18 12:36:00
3:56 AM,8.6,3.2,79,29.69,10.0,North,3.5,-,N/A,,Mostly Cloudy,350,2012-12-18 12:56:00
4:16 AM,10.4,3.2,73,29.69,10.0,North,3.5,-,N/A,,Mostly Cloudy,350,2012-12-18 13:16:00
4:36 AM,10.4,5.0,79,29.69,10.0,North,3.5,-,N/A,,Overcast,350,2012-12-18 13:36:00
4:56 AM,12.2,5.0,73,29.68,10.0,North,3.5,-,N/A,,Scattered Clouds,350,2012-12-18 13:56:00
5:16 AM,10.4,3.2,73,29.68,10.0,Calm,Calm,-,N/A,,Clear,0,2012-12-18 14:16:00
5:36 AM,10.4,1.4,67,29.67,10.0,Calm,Calm,-,N/A,,Mostly Cloudy,0,2012-12-18 14:36:00
5:56 AM,10.4,3.2,73,29.67,10.0,North,3.5,-,N/A,,Overcast,350,2012-12-18 14:56:00
6:16 AM,10.4,1.4,67,29.67,10.0,Calm,Calm,-,N/A,,Scattered Clouds,0,2012-12-18 15:16:00
6:36 AM,8.6,1.4,73,29.67,10.0,North,3.5,-,N/A,,Mostly Cloudy,360,2012-12-18 15:36:00
6:56 AM,8.6,3.2,79,29.67,10.0,NNW,4.6,-,N/A,,Overcast,340,2012-12-18 15:56:00
7:16 AM,10.4,3.2,73,29.66,10.0,North,4.6,-,N/A,,Overcast,360,2012-12-18 16:16:00
7:36 AM,10.4,3.2,73,29.66,10.0,Calm,Calm,-,N/A,,Overcast,0,2012-12-18 16:36:00
7:56 AM,12.2,6.8,79,29.66,10.0,NNW,3.5,-,N/A,,Overcast,340,2012-12-18 16:56:00
8:16 AM,14.0,10.4,86,29.65,10.0,Calm,Calm,-,N/A,,Overcast,0,2012-12-18 17:16:00
8:36 AM,15.8,8.6,73,29.64,10.0,North,4.6,-,N/A,,Overcast,350,2012-12-18 17:36:00
8:56 AM,15.8,8.6,73,29.64,10.0,NNW,3.5,-,N/A,,Overcast,340,2012-12-18 17:56:00
9:16 AM,15.8,8.6,73,29.63,10.0,NNW,5.8,-,N/A,,Overcast,340,2012-12-18 18:16:00
9:36 AM,15.8,8.6,73,29.63,10.0,NNW,5.8,-,N/A,,Overcast,340,2012-12-18 18:36:00
9:56 AM,15.8,10.4,79,29.63,10.0,North,4.6,-,N/A,,Overcast,350,2012-12-18 18:56:00
10:16 AM,17.6,10.4,73,29.63,10.0,NNW,5.8,-,N/A,,Overcast,340,2012-12-18 19:16:00
10:36 AM,17.6,10.4,73,29.62,10.0,North,4.6,-,N/A,,Overcast,350,2012-12-18 19:36:00
10:56 AM,17.6,10.4,73,29.61,10.0,North,5.8,-,N/A,,Overcast,350,2012-12-18 19:56:00
11:16 AM,17.6,12.2,79,29.61,10.0,North,3.5,-,N/A,,Overcast,350,2012-12-18 20:16:00
11:36 AM,17.6,12.2,79,29.60,10.0,Calm,Calm,-,N/A,,Overcast,0,2012-12-18 20:36:00
12:16 PM,19.4,12.2,74,29.58,10.0,NNW,6.9,-,N/A,,Overcast,330,2012-12-18 21:16:00
12:36 PM,19.4,12.2,74,29.57,10.0,NNW,5.8,-,N/A,,Overcast,340,2012-12-18 21:36:00
12:56 PM,19.4,12.2,74,29.56,10.0,NNW,6.9,-,N/A,,Overcast,330,2012-12-18 21:56:00
1:16 PM,17.6,10.4,73,29.56,10.0,NNW,5.8,-,N/A,,Mostly Cloudy,340,2012-12-18 22:16:00
1:36 PM,17.6,10.4,73,29.55,10.0,NNW,6.9,-,N/A,,Scattered Clouds,330,2012-12-18 22:36:00
1:56 PM,19.4,10.4,68,29.55,10.0,NNW,5.8,-,N/A,,Mostly Cloudy,330,2012-12-18 22:56:00
2:16 PM,19.4,10.4,68,29.54,10.0,North,6.9,-,N/A,,Mostly Cloudy,360,2012-12-18 23:16:00
2:36 PM,17.6,8.6,68,29.53,10.0,NNW,5.8,-,N/A,,Clear,330,2012-12-18 23:36:00
2:56 PM,19.4,10.4,68,29.53,10.0,North,5.8,-,N/A,,Clear,350,2012-12-18 23:56:00
3:16 PM,17.6,8.6,68,29.52,10.0,NNW,5.8,-,N/A,,Mostly Cloudy,340,2012-12-19 00:16:00
3:36 PM,17.6,10.4,73,29.50,10.0,NNW,6.9,-,N/A,,Overcast,340,2012-12-19 00:36:00
3:56 PM,19.4,10.4,68,29.49,10.0,North,6.9,-,N/A,,Overcast,350,2012-12-19 00:56:00
4:16 PM,19.4,12.2,74,29.48,10.0,NW,4.6,-,N/A,,Overcast,310,2012-12-19 01:16:00
4:36 PM,19.4,10.4,68,29.48,10.0,Calm,Calm,-,N/A,,Mostly Cloudy,0,2012-12-19 01:36:00
4:56 PM,19.4,10.4,68,29.47,10.0,NNW,5.8,-,N/A,,Partly Cloudy,340,2012-12-19 01:56:00
5:16 PM,19.4,10.4,68,29.47,10.0,Calm,Calm,-,N/A,,Clear,0,2012-12-19 02:16:00
5:36 PM,17.6,10.4,73,29.46,10.0,Calm,Calm,-,N/A,,Clear,0,2012-12-19 02:36:00
5:56 PM,17.6,10.4,73,29.46,10.0,NW,3.5,-,N/A,,Partly Cloudy,320,2012-12-19 02:56:00
6:16 PM,15.8,10.4,79,29.46,10.0,Calm,Calm,-,N/A,,Mostly Cloudy,0,2012-12-19 03:16:00
6:36 PM,17.6,10.4,73,29.44,10.0,NNW,4.6,-,N/A,,Overcast,340,2012-12-19 03:36:00
6:56 PM,19.4,10.4,68,29.42,10.0,NW,4.6,-,N/A,,Overcast,320,2012-12-19 03:56:00
7:16 PM,19.4,12.2,74,29.42,10.0,NNW,3.5,-,N/A,,Overcast,330,2012-12-19 04:16:00
7:36 PM,19.4,12.2,74,29.41,10.0,North,3.5,-,N/A,,Overcast,360,2012-12-19 04:36:00
7:56 PM,17.6,10.4,73,29.41,10.0,Calm,Calm,-,N/A,,Overcast,0,2012-12-19 04:56:00
8:16 PM,17.6,10.4,73,29.40,10.0,Calm,Calm,-,N/A,,Overcast,0,2012-12-19 05:16:00
8:36 PM,17.6,12.2,79,29.39,10.0,Calm,Calm,-,N/A,,Overcast,0,2012-12-19 05:36:00
8:56 PM,17.6,10.4,73,29.38,10.0,Calm,Calm,-,N/A,,Overcast,0,2012-12-19 05:56:00
9:16 PM,17.6,12.2,79,29.37,10.0,Calm,Calm,-,N/A,,Overcast,0,2012-12-19 06:16:00
9:36 PM,17.6,12.2,79,29.37,10.0,Calm,Calm,-,N/A,,Overcast,0,2012-12-19 06:36:00
9:56 PM,17.6,12.2,79,29.37,10.0,Calm,Calm,-,N/A,,Overcast,0,2012-12-19 06:56:00
10:16 PM,17.6,12.2,79,29.36,10.0,North,3.5,-,N/A,,Overcast,360,2012-12-19 07:16:00
10:36 PM,17.6,12.2,79,29.36,10.0,Calm,Calm,-,N/A,,Overcast,0,2012-12-19 07:36:00
10:56 PM,15.8,10.4,79,29.35,10.0,North,3.5,-,N/A,,Scattered Clouds,360,2012-12-19 07:56:00
11:16 PM,14.0,8.6,79,29.34,10.0,North,4.6,-,N/A,,Scattered Clouds,350,2012-12-19 08:16:00
11:36 PM,14.0,8.6,79,29.32,10.0,NNW,6.9,-,N/A,,Mostly Cloudy,330,2012-12-19 08:36:00
11:56 PM,17.6,12.2,79,29.31,10.0,Calm,Calm,-,N/A,,Mostly Cloudy,0,2012-12-19 08:56:00